Regional Weather Roundup
Issued by NWS

Home | Current Version | Previous Version | Graphics & Text | Print | Product List | Glossary On
Versions: 1 2 3 4 5 6 7 8 9 10 11 12 13 14 15 16 17 18 19 20 21 22 23 24 25 26 27 28 29 30 31 32 33 34 35 36 37 38 39 40 41 42 43 44 45 46 47 48 49 50
000
ASUS45 KBOU 222007
RWRCO

WEATHER ROUNDUP FOR COLORADO
NATIONAL WEATHER SERVICE DENVER/BOULDER CO
200 PM MDT WED MAR 22 2017

NOTE: "FAIR" INDICATES FEW OR NO CLOUDS BELOW 12000 FEET WITH NO
SIGNIFICANT WEATHER AND/OR OBSTRUCTIONS TO VISIBILITY.

COZ001>005-013-030-031-222100-
...NORTHWEST COLORADO...

CITY           SKY/WX    TMP DP  RH WIND       PRES   REMARKS
CRAIG          FAIR      68  19  15 SW22G32   29.96F
HAYDEN         FAIR      64  21  19 SW21G32   29.98F
MEEKER         FAIR      67  21  17 S23G33    29.97F
MOUNT WERNER   NOT AVBL
STEAMBOAT SPGS CLOUDY    58  24  26 SW14      30.00F
WALDEN         NOT AVBL
$$

COZ006>008-011-222100-
...WEST CENTRAL VALLEYS...

CITY           SKY/WX    TMP DP  RH WIND       PRES   REMARKS
GRAND JUNCTION FAIR      70  24  17 VRB6      29.91F
MONTROSE       CLOUDY    65  23  20 N10       29.99F
EAGLE          SUNNY     63  19  19 W22G31    30.04S
RIFLE          FAIR      69  19  15 S15G26    29.96F
DELTA          FAIR      69  26  19 E6        29.97F
NUCLA          PTSUNNY   68  19  15 S16G23    30.01F
$$

COZ017>023-064>068-222100-
...SOUTHWEST COLORADO...

CITY           SKY/WX    TMP DP  RH WIND       PRES   REMARKS
DURANGO        FAIR      63  23  21 SW10      30.09F
CORTEZ         FAIR      67  22  18 S13G18    30.03F
PAGOSA SPRINGS FAIR      57  24  27 CALM      30.16F
TELLURIDE      FAIR      55  21  27 SE13      30.16F
WOLF CREEK PAS CLOUDY    34  21  60 S16G25    30.37F WCI  23
$$

COZ009-010-012-014-032>034-037-058>063-222100-
...CENTRAL COLORADO...

CITY           SKY/WX    TMP DP  RH WIND       PRES   REMARKS
ASPEN          PTSUNNY   58  21  24 S12G20    30.09F
BUENA VISTA    FAIR      64  11  13 SW15G33   30.07F
COPPER MTN     NOT AVBL
BERTHOUD PASS  FAIR      39  30  70 SW13      30.27F
COTTONWOOD PAS PTSUNNY   59  10  14 S10G20    30.17F
GUNNISON       FAIR      53  34  48 N6        30.09F
KREMMLING      FAIR      72  12  10 SW21G31   30.04F
LEADVILLE      PTSUNNY   48  12  23 VRB6      30.16F
MONARCH PASS   CLOUDY    41  18  38 W21       30.38F
SALIDA         FAIR      66  19  16 S8        30.12F
SUNLIGHT       CLOUDY    39  21  48 SW14G24   30.23F
WILKERSON PASS FAIR      52  12  20 S8G25     30.24F
$$

COZ069>075-222100-
...SAN LUIS VALLEY/SANGRE DE CRISTO MOUNTAINS...

CITY           SKY/WX    TMP DP  RH WIND       PRES   REMARKS
ALAMOSA        FAIR      66  12  12 SW22G29   30.07F
LA VETA PASS   NOT AVBL
SAGUACHE       FAIR      64  19  17 N10G21    30.07F
$$

COZ035-036-038>040-222100-
...NORTHERN COLORADO FRONT RANGE...

CITY           SKY/WX    TMP DP  RH WIND       PRES   REMARKS
DENVER INTL AP PTSUNNY   69  34  27 E8        29.89F
DMNS CITY PARK   N/A     63  32  31 NE12G20   29.89F
AURORA         PTSUNNY   72  33  24 NE7       29.89F
FRONT RANGE AP PTSUNNY   73  32  21 NE13G18   29.91F
ERIE MUNI ARPT FAIR      63  31  29 CALM      29.90F
BOULDER MUN AP FAIR      63  34  34 E3        29.90F
CENTENNIAL     PTSUNNY   72  32  23 N9        29.90F
BROOMFIELD     PTSUNNY   63  32  31 VRB5      29.92F
FORT COLLINS   FAIR      62  35  36 E5        29.92F
LONGMONT       FAIR      66  33  30 NW3       29.92F
$$

COZ041-046-047-076>085-087-088-222100-
...PIKES PEAK/PALMER DIVIDE AND SOUTHERN FOOTHILLS...

CITY           SKY/WX    TMP DP  RH WIND       PRES   REMARKS
COLO. SPRINGS  PTSUNNY   59  30  33 S10       30.00F
A. F. ACADEMY  FAIR      59  30  33 S13       30.00F
SCHRIEVER AFB  FAIR      59  31  34 S12G24    30.01F
ELLICOTT         N/A    N/A N/A N/A S17G24    29.99F
FALCON         FAIR      59  30  33 S16       30.04F
FORT CARSON    FAIR      61  32  33 SE8       29.98F
LIMON          FAIR      65  37  35 SE20      29.98F
MONUMENT HILL  FAIR      63  28  27 S21       30.01F
TRINIDAD       FAIR      80  18  10 SW18G32   29.94F
$$

COZ042>045-048>051-090-091-222100-
...NORTHEAST COLORADO...

CITY           SKY/WX    TMP DP  RH WIND       PRES   REMARKS
GREELEY ARPT   FAIR      63  36  36 CALM      29.91F
AKRON          FAIR      66  35  31 S21G31    29.93F
BURLINGTON     FAIR      59  36  42 S25G32    29.99F
WRAY           NOT AVBL
STERLING       FAIR      66  36  32 S16G22    29.92F
HOLYOKE        FAIR      61  36  39 SE21      29.98F
FORT MORGAN    FAIR      70  32  24 S8        29.91F
$$

COZ086-089-092>099-222100-
...SOUTHEAST COLORADO...

CITY           SKY/WX    TMP DP  RH WIND       PRES   REMARKS
PUEBLO         FAIR      63  34  33 SE5       29.96F
LA JUNTA       FAIR      65  40  39 E8        29.95F
LAMAR            N/A     67  39  35 S18G24    29.96F
SPRINGFIELD      N/A     65  42  43 S28G35    30.01F
$$



USA.gov is the U.S. government's official web portal to all federal, state and local government web resources and services.